This is the latest recevied weather packets stored in our database for station/object N0NAI-13. If no packets are shown the sender has not sent any weather packets the latest 10 day(s).
| Time | Temp. | Humidity | Pressure | Rain* | Wind** | Luminosity | Snow |
|---|---|---|---|---|---|---|---|
| 1777407331 | 16.67° C | 50% | 1017.1 hPa | 0 mm | - | - | - |
| 1777406716 | 16.67° C | 51% | 1017.4 hPa | 0 mm | - | - | - |
| 1777406119 | 16.11° C | 49% | 1017.6 hPa | 0 mm | - | - | - |
| 1777404924 | 16.67° C | 48% | 1017.4 hPa | 0 mm | - | - | - |
| 1777404328 | 16.67° C | 51% | 1017.2 hPa | 0 mm | - | - | - |
| 1777403725 | 16.11° C | 54% | 1017.2 hPa | 0 mm | - | - | - |
| 1777402518 | 14.44° C | 53% | 1017.2 hPa | 0 mm | - | - | - |
| 1777401921 | 14.44° C | 54% | 1017.2 hPa | 0 mm | - | - | - |
| 1777401324 | 14.44° C | 55% | 1017.1 hPa | 0 mm | - | - | - |
| 1777400727 | 14.44° C | 54% | 1017 hPa | 0 mm | - | - | - |
| 1777400130 | 16.11° C | 53% | 1017 hPa | 0 mm | - | - | - |
| 1777398917 | 15° C | 52% | 1016.7 hPa | 0 mm | - | - | - |
| 1777397723 | 13.33° C | 59% | 1016.9 hPa | 0 mm | - | - | - |
| 1777397126 | 12.78° C | 61% | 1017.1 hPa | 0 mm | - | - | - |
| 1777396529 | 12.78° C | 58% | 1017.1 hPa | 0 mm | - | - | - |
| 1777395926 | 12.78° C | 60% | 1017.1 hPa | 0 mm | - | - | - |
| 1777394732 | 13.33° C | 55% | 1017.2 hPa | 0 mm | - | - | - |
| 1777393520 | 13.89° C | 55% | 1017.2 hPa | 0 mm | - | - | - |
| 1777392326 | 13.33° C | 59% | 1016.7 hPa | 0 mm | - | - | - |
| 1777391723 | 12.22° C | 60% | 1016.5 hPa | 0 mm | - | - | - |
| 1777391120 | 11.67° C | 63% | 1016.7 hPa | 0 mm | - | - | - |
| 1777390516 | 12.78° C | 63% | 1016.9 hPa | 0 mm | - | - | - |
| 1777389919 | 11.67° C | 65% | 1016.9 hPa | 0 mm | - | - | - |
| 1777388128 | 11.11° C | 72% | 1016.7 hPa | 0 mm | - | - | - |
| 1777386915 | 10.56° C | 73% | 1016.5 hPa | 0 mm | - | - | - |
* Rain latest hour (hover to see other rain measurements)
** Current wind speed in m/s (hover to see current wind gust speed)